| time (UTC) | temp F | wind direction | speed knots | gust knots | rain 1hr in | rain 24hr in | rain mn in | humidity % | barometer mb |
| 20260504081514 | 46 | 130 | 0.0 | 0.0 | 0.00 | 0.00 | 0.00 | 63 | 1015.5 |
| 20260504044557 | 48 | 307 | 0.0 | 0.0 | 0.00 | 0.00 | 0.00 | 56 | 1015.2 |
| 20260504043101 | 48 | 307 | 0.0 | 0.0 | 0.00 | 0.00 | 0.00 | 55 | 1015.1 |
| 20260504041555 | 48 | 307 | 0.0 | 0.0 | 0.00 | 0.00 | 0.00 | 55 | 1015.0 |
| 20260504040052 | 48 | 307 | 0.0 | 0.0 | 0.00 | 0.00 | 0.00 | 54 | 1014.8 |
| 20260504034550 | 49 | 307 | 0.0 | 0.0 | 0.00 | 0.00 | 0.00 | 53 | 1014.8 |
| 20260504033054 | 49 | 307 | 0.0 | 0.0 | 0.00 | 0.00 | 0.00 | 53 | 1014.7 |
| 20260504031559 | 50 | 307 | 0.0 | 0.0 | 0.00 | 0.00 | 0.00 | 52 | 1014.7 |
| 20260504030051 | 50 | 307 | 0.0 | 0.0 | 0.00 | 0.00 | 0.00 | 51 | 1014.7 |
| 20260504024557 | 50 | 311 | 0.0 | 0.9 | 0.00 | 0.00 | 0.00 | 51 | 1014.7 |
| 20260504023048 | 50 | 313 | 0.0 | 0.0 | 0.00 | 0.00 | 0.00 | 50 | 1014.8 |
| 20260504021552 | 51 | 313 | 0.0 | 0.0 | 0.00 | 0.00 | 0.00 | 49 | 1014.7 |
| 20260504020050 | 52 | 313 | 0.0 | 0.0 | 0.00 | 0.00 | 0.00 | 48 | 1014.6 |
| 20260504014547 | 52 | 313 | 0.0 | 0.0 | 0.00 | 0.00 | 0.00 | 47 | 1014.6 |
| 20260504013056 | 53 | 313 | 0.0 | 0.0 | 0.00 | 0.00 | 0.00 | 46 | 1014.4 |
| 20260504011546 | 53 | 313 | 0.0 | 0.0 | 0.00 | 0.00 | 0.00 | 45 | 1014.3 |
| 20260504010046 | 54 | 313 | 0.0 | 0.0 | 0.00 | 0.00 | 0.00 | 44 | 1014.1 |
| 20260504004559 | 55 | 290 | 0.0 | 0.9 | 0.00 | 0.00 | 0.00 | 43 | 1013.9 |
| 20260504003045 | 56 | 290 | 0.0 | 0.9 | 0.00 | 0.00 | 0.00 | 42 | 1013.7 |
| 20260504001547 | 56 | 312 | 0.0 | 0.9 | 0.00 | 0.00 | 0.00 | 41 | 1013.6 |
| 20260504000044 | 57 | 311 | 0.0 | 1.7 | 0.00 | 0.00 | 0.00 | 40 | 1013.5 |
| 20260503234543 | 58 | 323 | 0.0 | 3.5 | 0.00 | 0.00 | 0.00 | 39 | 1013.3 |
| 20260503233044 | 58 | 312 | 0.9 | 3.5 | 0.00 | 0.00 | 0.00 | 38 | 1013.2 |
| 20260503231550 | 58 | 304 | 0.9 | 6.1 | 0.00 | 0.00 | 0.00 | 37 | 1013.1 |
| 20260503230050 | 58 | 291 | 0.9 | 5.2 | 0.00 | 0.00 | 0.00 | 36 | 1013.0 |
| 20260503224542 | 59 | 360 | 3.5 | 9.6 | 0.00 | 0.00 | 0.00 | 36 | 1013.0 |
| 20260503223041 | 59 | 42 | 0.0 | 8.7 | 0.00 | 0.00 | 0.00 | 37 | 1013.0 |
| 20260503221540 | 59 | 330 | 2.6 | 10.4 | 0.00 | 0.00 | 0.00 | 35 | 1013.0 |
| 20260503220041 | 59 | 290 | 2.6 | 11.3 | 0.00 | 0.00 | 0.00 | 36 | 1013.0 |
| 20260503214538 | 59 | 305 | 0.9 | 6.1 | 0.00 | 0.00 | 0.00 | 36 | 1012.8 |
| 20260503213037 | 58 | 302 | 4.3 | 8.7 | 0.00 | 0.00 | 0.00 | 37 | 1012.9 |
| 20260503211540 | 58 | 281 | 2.6 | 8.7 | 0.00 | 0.00 | 0.00 | 37 | 1012.8 |
| 20260503210034 | 58 | 330 | 1.7 | 8.7 | 0.00 | 0.00 | 0.00 | 38 | 1012.8 |
| 20260503204533 | 57 | 280 | 1.7 | 8.7 | 0.00 | 0.00 | 0.00 | 38 | 1012.9 |
| 20260503203031 | 57 | 284 | 2.6 | 11.3 | 0.00 | 0.00 | 0.00 | 38 | 1013.1 |
| 20260503201530 | 57 | 247 | 1.7 | 11.3 | 0.00 | 0.00 | 0.00 | 38 | 1013.1 |
| 20260503200031 | 56 | 272 | 4.3 | 11.3 | 0.00 | 0.00 | 0.00 | 38 | 1013.2 |
| 20260503194530 | 56 | 334 | 3.5 | 11.3 | 0.00 | 0.00 | 0.00 | 39 | 1013.2 |
| 20260503193036 | 56 | 284 | 4.3 | 10.4 | 0.00 | 0.00 | 0.00 | 39 | 1013.3 |
| 20260503191526 | 56 | 351 | 0.0 | 8.7 | 0.00 | 0.00 | 0.00 | 40 | 1013.5 |
| 20260503190031 | 55 | 309 | 4.3 | 9.6 | 0.00 | 0.00 | 0.00 | 40 | 1013.6 |
| 20260503184522 | 55 | 360 | 2.6 | 13.9 | 0.00 | 0.00 | 0.00 | 40 | 1013.6 |
| 20260503183018 | 55 | 302 | 0.9 | 10.4 | 0.00 | 0.00 | 0.00 | 40 | 1013.9 |
| 20260503181515 | 55 | 288 | 2.6 | 10.4 | 0.00 | 0.00 | 0.00 | 39 | 1014.1 |
| 20260503180012 | 54 | 319 | 1.7 | 7.8 | 0.00 | 0.00 | 0.00 | 41 | 1014.1 |
| 20260503174509 | 54 | 302 | 0.9 | 10.4 | 0.00 | 0.00 | 0.00 | 41 | 1014.2 |
| 20260503173017 | 54 | 265 | 3.5 | 11.3 | 0.00 | 0.00 | 0.00 | 41 | 1014.3 |
| 20260503171508 | 54 | 300 | 3.5 | 9.6 | 0.00 | 0.00 | 0.00 | 42 | 1014.4 |